STARLINK-5899, 55949

Orbit data source: Space-Track

STARLINK-5899, 55949 is a payload satellite owned by SpaceX/Seattle (US) in LEO that was launched on Fri, 17 Mar 2023 UTC via an FALCON 9 launch vehicle from the Air Force Western Test Range (AFWTR). Payload-class satellites include a variety of spacecraft equipped with specific instruments for various scientific and technological missions. These include communications satellites like Starlink; space stations such as the ISS; scientific satellites like the Hubble; Earth observation satellites from companies like Planet Labs, Umbra, and HawkEye 360; GPS; miniature CubeSats for education and research; and military/defense satellites.

Loading next visibility...
Identifier
55949, 2023-037AM
Orbit
LEO
Last TLE update
22 hours ago
Origin
Manufacturer
SpaceX/Seattle
Mission
Operational Commercial Communications
Bus & Motor
STARLINK, Unknown motor
Mass
305 kg wet, ~290 kg dry
Launch date (UTC)
2023-03-17 (2 years ago)
Launch vehicle
FALCON 9
Launch site
Air Force Western Test Range (AFWTR)
Object type
Payload
Rocket body
Debris
Shape & HBR
Box + 1 Pan, 9 m
Radar Cross Section
11.087 m², Large (>1 m²)

Expand to show TLE details & history

TLE from 22 hours ago
0 STARLINK-5899
1 55949U 23037AM  25128.69357877  .00000096  00000-0  15827-4 0  9999
2 55949  69.9985 313.6226 0003067 266.8883  93.1925 14.98330609118787
Epoch: 2025-05-08T16:38Z
Definitive object data (Epoch: 2025-05-08T16:38:45.205Z)
Latitude
-0.00005°
Longitude
-162.82618°
Altitude
574.597 km
Speed
7.574 km/s
True Right ascension
20h 54m 29s
True Declination
0° 00' 00"
Sunlit
Object was in daylight at TLE epoch
Visualization TLE readout
Latitude
-23.62103°
Longitude
23.99997°
Altitude
579.317 km
Speed
7.571 km/s
Apparent Right ascension
09h 52m 50s
Apparent Declination
-31° 33' 26"
Sunlit
Object is in daylight
Visualization observer readout
Local Sidereal Time
22:33:22
Azimuth
47.599° ENE
Elevation
-78.291°
Doppler factor
1
Orbital elements
Apogee altitude
572.133 km
Perigee altitude
567.871 km
Semi-major axis
6,948.139 km
Eccentricity
0.0003067
Inclination
69.9985°
RAAN
313.6226°
Arg. of periapsis
266.8883°
True anomaly
93.22759°
Mean anomaly
93.1925°
Eccentric anomaly
93.21005°
Mean motion
3.74749 °/min
BSTAR
0.000015827
Orbital period
96.06 mins
Loading maneuver chart data...
Loading SW <> Apogee altitude chart data...
Loading historical data...
Loading historical data...
Loading historical data...
Loading historical data...
Loading historical data...
Loading historical data...
Loading historical data...

STARLINK-5899 Visibility forecast

Observer location: undefined°, undefined°

Span
Click to sort rows by Start time (UTC) header in descending order
Start Az.
Max El. time (UTC)
Max El. Az.
Max El.
End time (UTC)
End Az.
4 mins2025-05-09 22:02:13.639Z28.363° NE2025-05-09 22:04:13.639Z61.303° ENE14.903°2025-05-09 22:06:13.639Z90.098° ESE
6 mins2025-05-09 23:40:13.639Z311.795° NW2025-05-09 23:42:13.639Z254.027° W36.792°2025-05-09 23:46:13.639Z175.967° S
7 mins2025-05-10 13:39:13.639Z213.633° SW2025-05-10 13:42:13.639Z299.627° NW43.271°2025-05-10 13:46:13.639Z19.742° NNE
|